| time (UTC) | temp F | wind direction | speed MPH | gust MPH | rain 1hr in | rain 24hr in | rain mn in | humidity % | barometer mb |
| 20260510001804 | 61 | 244 | 1.0 | 3.0 | 0.00 | 0.90 | 0.00 | 90 | 1012.6 |
| 20260509235804 | 61 | 244 | 0.0 | 2.0 | 0.00 | 0.90 | 0.00 | 90 | 1012.6 |
| 20260509235306 | 61 | 244 | 0.0 | 3.0 | 0.00 | 0.90 | 0.00 | 90 | 1012.6 |
| 20260509234804 | 61 | 244 | 1.0 | 2.0 | 0.00 | 0.90 | 0.00 | 90 | 1012.7 |
| 20260509234304 | 61 | 244 | 1.0 | 3.0 | 0.00 | 0.90 | 0.00 | 91 | 1012.7 |
| 20260509233804 | 61 | 244 | 1.0 | 3.0 | 0.00 | 0.90 | 0.00 | 91 | 1012.7 |
| 20260509233304 | 61 | 244 | 0.0 | 0.0 | 0.00 | 0.90 | 0.00 | 90 | 1012.6 |
| 20260509232804 | 61 | 244 | 0.0 | 0.0 | 0.00 | 0.90 | 0.00 | 90 | 1012.7 |
| 20260509232306 | 61 | 244 | 0.0 | 0.0 | 0.00 | 0.90 | 0.00 | 90 | 1012.8 |
| 20260509231804 | 61 | 244 | 0.0 | 1.0 | 0.00 | 0.90 | 0.00 | 90 | 1012.8 |
| 20260509230804 | 61 | 244 | 1.0 | 2.0 | 0.00 | 0.90 | 0.00 | 90 | 1012.8 |
| 20260509230304 | 61 | 244 | 1.0 | 3.0 | 0.00 | 0.90 | 0.00 | 90 | 1012.9 |
| 20260509225804 | 61 | 245 | 0.0 | 0.0 | 0.00 | 0.90 | 0.00 | 90 | 1012.8 |
| 20260509225306 | 61 | 245 | 0.0 | 0.0 | 0.00 | 0.90 | 0.00 | 90 | 1012.7 |
| 20260509224303 | 61 | 245 | 0.0 | 0.0 | 0.00 | 0.90 | 0.00 | 90 | 1012.9 |
| 20260509223804 | 61 | 245 | 0.0 | 0.0 | 0.00 | 0.90 | 0.00 | 90 | 1013.1 |
| 20260509223304 | 61 | 246 | 0.0 | 0.0 | 0.00 | 0.90 | 0.00 | 90 | 1013.2 |
| 20260509222804 | 61 | 246 | 0.0 | 0.0 | 0.00 | 0.90 | 0.00 | 90 | 1013.2 |
| 20260509222307 | 62 | 246 | 0.0 | 1.0 | 0.00 | 0.90 | 0.00 | 89 | 1013.1 |
| 20260509221804 | 62 | 246 | 1.0 | 2.0 | 0.00 | 0.90 | 0.00 | 89 | 1013.1 |
| 20260509221304 | 62 | 246 | 0.0 | 0.0 | 0.00 | 0.90 | 0.00 | 89 | 1013.1 |
| 20260509220304 | 62 | 246 | 1.0 | 2.0 | 0.00 | 0.90 | 0.00 | 89 | 1013.3 |
| 20260509215804 | 62 | 253 | 2.0 | 6.0 | 0.00 | 0.90 | 0.90 | 89 | 1013.4 |
| 20260509215306 | 62 | 246 | 3.0 | 6.0 | 0.00 | 0.90 | 0.90 | 88 | 1013.4 |
| 20260509214804 | 62 | 0 | 1.0 | 3.0 | 0.00 | 0.90 | 0.90 | 88 | 1013.4 |
| 20260509214303 | 62 | 31 | 1.0 | 3.0 | 0.00 | 0.90 | 0.90 | 88 | 1013.2 |
| 20260509213804 | 62 | 10 | 1.0 | 3.0 | 0.00 | 0.90 | 0.90 | 88 | 1013.0 |
| 20260509213304 | 62 | 140 | 0.0 | 1.0 | 0.00 | 0.90 | 0.90 | 88 | 1012.8 |
| 20260509212803 | 62 | 140 | 1.0 | 6.0 | 0.00 | 0.90 | 0.90 | 88 | 1012.6 |
| 20260509212306 | 63 | 18 | 3.0 | 6.0 | 0.00 | 0.90 | 0.90 | 87 | 1012.2 |
| 20260509211303 | 63 | 61 | 3.0 | 7.0 | 0.00 | 0.90 | 0.90 | 87 | 1012.3 |
| 20260509210303 | 63 | 137 | 1.0 | 2.0 | 0.00 | 0.90 | 0.90 | 87 | 1012.8 |
| 20260509205803 | 63 | 5 | 2.0 | 3.0 | 0.00 | 0.90 | 0.90 | 86 | 1012.8 |
| 20260509205307 | 64 | 136 | 3.0 | 5.0 | 0.00 | 0.90 | 0.90 | 86 | 1012.7 |
| 20260509204804 | 63 | 135 | 3.0 | 5.0 | 0.00 | 0.90 | 0.90 | 86 | 1012.7 |
| 20260509204303 | 63 | 135 | 2.0 | 3.0 | 0.00 | 0.90 | 0.90 | 86 | 1012.5 |
| 20260509203304 | 63 | 135 | 0.0 | 0.0 | 0.00 | 0.90 | 0.90 | 86 | 1012.7 |
| 20260509202804 | 64 | 135 | 0.0 | 1.0 | 0.00 | 0.90 | 0.90 | 86 | 1012.7 |
| 20260509202306 | 64 | 135 | 1.0 | 2.0 | 0.00 | 0.90 | 0.90 | 86 | 1012.5 |
| 20260509201303 | 63 | 136 | 1.0 | 2.0 | 0.00 | 0.90 | 0.90 | 86 | 1012.4 |
| 20260509200804 | 63 | 136 | 1.0 | 3.0 | 0.00 | 0.90 | 0.90 | 86 | 1012.4 |
| 20260509200304 | 63 | 135 | 1.0 | 2.0 | 0.00 | 0.90 | 0.90 | 86 | 1012.3 |
| 20260509195306 | 63 | 135 | 0.0 | 0.0 | 0.00 | 0.90 | 0.90 | 86 | 1012.2 |
| 20260509194804 | 64 | 135 | 0.0 | 0.0 | 0.00 | 0.90 | 0.90 | 86 | 1011.9 |
| 20260509193804 | 64 | 135 | 0.0 | 1.0 | 0.00 | 0.90 | 0.90 | 85 | 1012.0 |
| 20260509192804 | 64 | 135 | 2.0 | 3.0 | 0.00 | 0.90 | 0.90 | 85 | 1011.7 |
| 20260509192306 | 64 | 135 | 1.0 | 2.0 | 0.00 | 0.90 | 0.90 | 85 | 1011.7 |
| 20260509191804 | 64 | 135 | 1.0 | 5.0 | 0.00 | 0.90 | 0.90 | 85 | 1011.6 |
| 20260509190803 | 64 | 135 | 2.0 | 3.0 | 0.00 | 0.90 | 0.90 | 84 | 1011.3 |
| 20260509190304 | 64 | 135 | 1.0 | 3.0 | 0.00 | 0.90 | 0.90 | 84 | 1011.2 |
| 20260509185804 | 64 | 135 | 1.0 | 3.0 | 0.00 | 0.90 | 0.90 | 84 | 1011.1 |
| 20260509185306 | 64 | 135 | 2.0 | 3.0 | 0.00 | 0.90 | 0.90 | 84 | 1011.2 |
| 20260509184303 | 65 | 5 | 2.0 | 5.0 | 0.00 | 0.90 | 0.90 | 83 | 1011.1 |
| 20260509183804 | 65 | 32 | 2.0 | 7.0 | 0.00 | 0.90 | 0.90 | 83 | 1011.0 |
| 20260509183304 | 65 | 136 | 5.0 | 6.0 | 0.00 | 0.90 | 0.90 | 83 | 1011.0 |
| 20260509182803 | 65 | 129 | 2.0 | 6.0 | 0.00 | 0.90 | 0.90 | 82 | 1011.0 |
| 20260509182306 | 65 | 11 | 3.0 | 7.0 | 0.00 | 0.90 | 0.90 | 82 | 1010.9 |
| 20260509181303 | 65 | 72 | 5.0 | 8.0 | 0.00 | 0.90 | 0.90 | 82 | 1010.3 |
| 20260509180804 | 65 | 17 | 2.0 | 7.0 | 0.00 | 0.90 | 0.90 | 81 | 1010.4 |
| 20260509180304 | 66 | 10 | 4.0 | 7.0 | 0.00 | 0.90 | 0.90 | 81 | 1010.4 |
| 20260509175804 | 66 | 62 | 2.0 | 5.0 | 0.00 | 0.90 | 0.90 | 81 | 1010.4 |
| 20260509175306 | 66 | 0 | 2.0 | 6.0 | 0.00 | 0.90 | 0.90 | 81 | 1010.4 |
| 20260509174804 | 66 | 62 | 5.0 | 6.0 | 0.00 | 0.90 | 0.90 | 80 | 1010.3 |
| 20260509174305 | 66 | 119 | 5.0 | 6.0 | 0.00 | 0.90 | 0.90 | 80 | 1010.5 |
| 20260509173805 | 66 | 119 | 3.0 | 5.0 | 0.00 | 0.90 | 0.90 | 80 | 1010.6 |
| 20260509173304 | 66 | 0 | 2.0 | 6.0 | 0.00 | 0.90 | 0.90 | 80 | 1010.6 |
| 20260509172806 | 66 | 21 | 4.0 | 6.0 | 0.00 | 0.90 | 0.90 | 80 | 1010.6 |
| 20260509172306 | 66 | 29 | 2.0 | 5.0 | 0.00 | 0.90 | 0.90 | 79 | 1010.6 |
| 20260509171305 | 67 | 109 | 2.0 | 6.0 | 0.00 | 0.90 | 0.90 | 78 | 1010.4 |
| 20260509170805 | 67 | 117 | 3.0 | 7.0 | 0.00 | 0.90 | 0.90 | 77 | 1010.5 |
| 20260509165306 | 68 | 76 | 3.0 | 8.0 | 0.00 | 0.90 | 0.90 | 76 | 1010.3 |
| 20260509164805 | 68 | 48 | 3.0 | 12.0 | 0.00 | 0.90 | 0.90 | 75 | 1010.2 |
| 20260509164305 | 68 | 80 | 2.0 | 8.0 | 0.00 | 0.90 | 0.90 | 76 | 1010.2 |
| 20260509163805 | 68 | 37 | 4.0 | 7.0 | 0.00 | 0.90 | 0.90 | 75 | 1010.1 |
| 20260509163305 | 68 | 23 | 3.0 | 8.0 | 0.00 | 0.90 | 0.90 | 77 | 1010.1 |
| 20260509162805 | 67 | 16 | 4.0 | 9.0 | 0.00 | 0.90 | 0.90 | 78 | 1010.0 |
| 20260509162307 | 67 | 24 | 3.0 | 10.0 | 0.01 | 0.90 | 0.90 | 77 | 1010.1 |
| 20260509161805 | 68 | 12 | 4.0 | 7.0 | 0.01 | 0.90 | 0.90 | 77 | 1010.2 |
| 20260509160804 | 68 | 4 | 3.0 | 8.0 | 0.01 | 0.90 | 0.90 | 76 | 1010.1 |
| 20260509160305 | 68 | 64 | 3.0 | 7.0 | 0.01 | 0.90 | 0.90 | 77 | 1010.1 |
| 20260509155805 | 68 | 22 | 5.0 | 10.0 | 0.01 | 0.90 | 0.90 | 78 | 1010.2 |
| 20260509155306 | 68 | 18 | 5.0 | 9.0 | 0.01 | 0.90 | 0.90 | 79 | 1010.3 |
| 20260509154805 | 67 | 26 | 2.0 | 8.0 | 0.01 | 0.90 | 0.90 | 81 | 1010.4 |
| 20260509154304 | 67 | 16 | 3.0 | 6.0 | 0.01 | 0.90 | 0.90 | 81 | 1010.3 |
| 20260509153804 | 66 | 11 | 5.0 | 10.0 | 0.01 | 0.90 | 0.90 | 80 | 1010.3 |
| 20260509153304 | 67 | 54 | 3.0 | 7.0 | 0.01 | 0.90 | 0.90 | 80 | 1010.3 |
| 20260509152805 | 67 | 0 | 5.0 | 8.0 | 0.01 | 0.90 | 0.90 | 81 | 1010.3 |
| 20260509151804 | 67 | 45 | 1.0 | 3.0 | 0.00 | 0.89 | 0.89 | 80 | 1010.0 |
| 20260509151305 | 67 | 24 | 4.0 | 5.0 | 0.00 | 0.89 | 0.89 | 80 | 1010.1 |
| 20260509150805 | 67 | 1 | 3.0 | 8.0 | 0.00 | 0.89 | 0.89 | 80 | 1010.1 |
| 20260509150305 | 67 | 309 | 2.0 | 3.0 | 0.00 | 0.89 | 0.89 | 81 | 1010.2 |
| 20260509145805 | 68 | 339 | 2.0 | 5.0 | 0.00 | 0.89 | 0.89 | 81 | 1010.2 |
| 20260509145306 | 68 | 314 | 0.0 | 2.0 | 0.00 | 0.89 | 0.89 | 82 | 1010.1 |
| 20260509144805 | 67 | 289 | 3.0 | 5.0 | 0.00 | 0.89 | 0.89 | 83 | 1010.1 |
| 20260509144305 | 67 | 21 | 3.0 | 3.0 | 0.00 | 0.89 | 0.89 | 84 | 1010.2 |
| 20260509143804 | 66 | 298 | 0.0 | 3.0 | 0.00 | 0.89 | 0.89 | 85 | 1010.2 |
| 20260509143304 | 66 | 332 | 2.0 | 5.0 | 0.00 | 0.89 | 0.89 | 86 | 1010.2 |
| 20260509142805 | 66 | 310 | 0.0 | 3.0 | 0.00 | 0.89 | 0.89 | 87 | 1010.2 |
| 20260509142307 | 66 | 277 | 2.0 | 5.0 | 0.00 | 0.89 | 0.89 | 88 | 1010.2 |
| 20260509141804 | 65 | 223 | 2.0 | 5.0 | 0.00 | 0.89 | 0.89 | 91 | 1010.3 |
| 20260509141305 | 64 | 222 | 3.0 | 5.0 | 0.00 | 0.89 | 0.89 | 91 | 1010.3 |
| 20260509140305 | 64 | 212 | 1.0 | 3.0 | 0.00 | 0.89 | 0.89 | 92 | 1010.2 |
| 20260509135805 | 64 | 211 | 2.0 | 3.0 | 0.00 | 0.89 | 0.89 | 93 | 1010.2 |
| 20260509135306 | 64 | 211 | 0.0 | 3.0 | 0.01 | 0.89 | 0.89 | 93 | 1010.2 |
| 20260509134804 | 63 | 211 | 2.0 | 3.0 | 0.01 | 0.89 | 0.89 | 93 | 1010.3 |
| 20260509134304 | 63 | 211 | 1.0 | 3.0 | 0.02 | 0.89 | 0.89 | 93 | 1010.1 |
| 20260509133804 | 63 | 196 | 4.0 | 5.0 | 0.03 | 0.89 | 0.89 | 93 | 1010.1 |
| 20260509133305 | 62 | 188 | 0.0 | 3.0 | 0.03 | 0.89 | 0.89 | 93 | 1010.2 |
| 20260509132805 | 62 | 188 | 2.0 | 5.0 | 0.04 | 0.89 | 0.89 | 93 | 1010.1 |
| 20260509132306 | 62 | 158 | 2.0 | 6.0 | 0.05 | 0.89 | 0.89 | 93 | 1009.8 |
| 20260509131305 | 62 | 87 | 5.0 | 8.0 | 0.07 | 0.89 | 0.89 | 93 | 1009.5 |
| 20260509125804 | 62 | 96 | 3.0 | 6.0 | 0.13 | 0.89 | 0.89 | 93 | 1009.8 |
| 20260509125307 | 62 | 264 | 1.0 | 3.0 | 0.13 | 0.88 | 0.88 | 93 | 1010.4 |
| 20260509124805 | 62 | 270 | 0.0 | 1.0 | 0.15 | 0.88 | 0.88 | 93 | 1011.1 |
| 20260509124305 | 62 | 269 | 1.0 | 3.0 | 0.16 | 0.87 | 0.87 | 93 | 1011.4 |
| 20260509123805 | 62 | 293 | 2.0 | 3.0 | 0.18 | 0.86 | 0.86 | 93 | 1011.6 |
| 20260509123304 | 62 | 278 | 2.0 | 5.0 | 0.20 | 0.86 | 0.86 | 93 | 1011.6 |
| 20260509122804 | 62 | 0 | 2.0 | 5.0 | 0.21 | 0.85 | 0.85 | 92 | 1011.6 |
| 20260509122306 | 61 | 317 | 2.0 | 3.0 | 0.20 | 0.84 | 0.84 | 92 | 1011.5 |
| 20260509121805 | 61 | 322 | 0.0 | 3.0 | 0.21 | 0.83 | 0.83 | 92 | 1011.4 |
| 20260509121304 | 61 | 279 | 1.0 | 2.0 | 0.20 | 0.82 | 0.82 | 92 | 1011.3 |
| 20260509120805 | 61 | 325 | 1.0 | 5.0 | 0.20 | 0.80 | 0.80 | 92 | 1011.3 |
| 20260509120304 | 61 | 275 | 2.0 | 3.0 | 0.19 | 0.78 | 0.78 | 92 | 1011.3 |
| 20260509115804 | 61 | 284 | 1.0 | 3.0 | 0.18 | 0.76 | 0.76 | 92 | 1011.4 |
| 20260509115307 | 61 | 277 | 1.0 | 3.0 | 0.19 | 0.75 | 0.75 | 92 | 1011.6 |
| 20260509114806 | 61 | 300 | 2.0 | 5.0 | 0.17 | 0.73 | 0.73 | 92 | 1011.7 |
| 20260509114304 | 61 | 326 | 4.0 | 7.0 | 0.16 | 0.71 | 0.71 | 92 | 1011.7 |
| 20260509113804 | 62 | 322 | 3.0 | 7.0 | 0.14 | 0.68 | 0.68 | 92 | 1011.8 |
| 20260509112804 | 62 | 320 | 3.0 | 6.0 | 0.16 | 0.64 | 0.64 | 92 | 1011.7 |
| 20260509112307 | 62 | 314 | 2.0 | 6.0 | 0.17 | 0.64 | 0.64 | 92 | 1011.8 |
| 20260509105805 | 62 | 314 | 2.0 | 6.0 | 0.16 | 0.58 | 0.58 | 91 | 1010.7 |
| 20260509104805 | 63 | 345 | 2.0 | 3.0 | 0.14 | 0.56 | 0.56 | 91 | 1010.6 |
| 20260509103305 | 63 | 347 | 3.0 | 5.0 | 0.13 | 0.52 | 0.52 | 91 | 1010.4 |
| 20260509102804 | 63 | 20 | 5.0 | 8.0 | 0.15 | 0.48 | 0.48 | 92 | 1010.2 |
| 20260509102306 | 63 | 25 | 5.0 | 7.0 | 0.16 | 0.47 | 0.47 | 92 | 1010.2 |
| 20260509101804 | 63 | 0 | 6.0 | 12.0 | 0.15 | 0.46 | 0.46 | 91 | 1010.1 |
| 20260509101304 | 63 | 350 | 5.0 | 8.0 | 0.15 | 0.46 | 0.46 | 92 | 1010.1 |
| 20260509100804 | 63 | 34 | 3.0 | 6.0 | 0.14 | 0.44 | 0.44 | 92 | 1010.2 |
| 20260509100305 | 63 | 56 | 4.0 | 7.0 | 0.14 | 0.44 | 0.44 | 92 | 1010.2 |
| 20260509095306 | 63 | 43 | 3.0 | 9.0 | 0.14 | 0.42 | 0.42 | 91 | 1010.4 |
| 20260509094804 | 63 | 73 | 0.0 | 3.0 | 0.16 | 0.42 | 0.42 | 91 | 1010.3 |
| 20260509094304 | 63 | 39 | 4.0 | 6.0 | 0.16 | 0.42 | 0.42 | 91 | 1009.9 |
| 20260509093804 | 62 | 37 | 3.0 | 6.0 | 0.16 | 0.41 | 0.41 | 91 | 1009.7 |
| 20260509093304 | 62 | 61 | 5.0 | 12.0 | 0.17 | 0.39 | 0.39 | 91 | 1009.4 |
| 20260509092804 | 63 | 16 | 6.0 | 12.0 | 0.13 | 0.33 | 0.33 | 91 | 1009.2 |
| 20260509092306 | 63 | 30 | 5.0 | 9.0 | 0.13 | 0.31 | 0.31 | 91 | 1009.9 |
| 20260509091804 | 63 | 25 | 2.0 | 8.0 | 0.14 | 0.31 | 0.31 | 91 | 1010.2 |
| 20260509091304 | 63 | 33 | 2.0 | 5.0 | 0.17 | 0.31 | 0.31 | 91 | 1009.9 |
| 20260509090805 | 63 | 34 | 2.0 | 5.0 | 0.18 | 0.30 | 0.30 | 91 | 1010.3 |
| 20260509090304 | 63 | 65 | 2.0 | 7.0 | 0.20 | 0.30 | 0.30 | 90 | 1010.4 |
| 20260509085804 | 63 | 352 | 5.0 | 9.0 | 0.20 | 0.28 | 0.28 | 90 | 1010.1 |
| 20260509085306 | 63 | 21 | 7.0 | 13.0 | 0.22 | 0.28 | 0.28 | 90 | 1010.0 |
| 20260509084804 | 63 | 20 | 6.0 | 9.0 | 0.20 | 0.26 | 0.26 | 90 | 1009.9 |
| 20260509084304 | 63 | 63 | 2.0 | 8.0 | 0.22 | 0.26 | 0.26 | 90 | 1010.3 |
| 20260509083804 | 63 | 31 | 5.0 | 8.0 | 0.21 | 0.25 | 0.25 | 90 | 1010.0 |
| 20260509082804 | 63 | 12 | 5.0 | 12.0 | 0.18 | 0.20 | 0.20 | 89 | 1009.9 |
| 20260509082307 | 64 | 25 | 3.0 | 8.0 | 0.16 | 0.18 | 0.18 | 89 | 1010.2 |
| 20260509081805 | 64 | 21 | 4.0 | 8.0 | 0.17 | 0.17 | 0.17 | 89 | 1010.2 |
| 20260509081304 | 64 | 12 | 3.0 | 6.0 | 0.14 | 0.14 | 0.14 | 89 | 1010.4 |
| 20260509080805 | 64 | 48 | 3.0 | 5.0 | 0.12 | 0.12 | 0.12 | 89 | 1010.6 |
| 20260509080304 | 64 | 29 | 2.0 | 5.0 | 0.10 | 0.10 | 0.10 | 89 | 1010.6 |
| 20260509075804 | 64 | 28 | 2.0 | 3.0 | 0.08 | 0.08 | 0.08 | 89 | 1010.6 |
| 20260509075306 | 64 | 27 | 2.0 | 3.0 | 0.06 | 0.06 | 0.06 | 88 | 1010.7 |
| 20260509074304 | 64 | 25 | 2.0 | 6.0 | 0.04 | 0.04 | 0.04 | 88 | 1010.4 |
| 20260509073805 | 64 | 26 | 3.0 | 6.0 | 0.04 | 0.04 | 0.04 | 88 | 1010.2 |
| 20260509072804 | 64 | 45 | 5.0 | 10.0 | 0.02 | 0.02 | 0.02 | 87 | 1010.0 |
| 20260509072306 | 64 | 28 | 4.0 | 7.0 | 0.02 | 0.02 | 0.02 | 87 | 1010.1 |
| 20260509071304 | 64 | 35 | 3.0 | 6.0 | 0.00 | 0.00 | 0.00 | 86 | 1010.3 |
| 20260509070804 | 64 | 16 | 3.0 | 5.0 | 0.00 | 0.00 | 0.00 | 86 | 1010.5 |
| 20260509070304 | 64 | 9 | 0.0 | 5.0 | 0.00 | 0.00 | 0.00 | 86 | 1010.7 |
| 20260509065804 | 64 | 28 | 1.0 | 5.0 | 0.00 | 0.00 | 0.00 | 86 | 1010.6 |
| 20260509065306 | 65 | 25 | 2.0 | 5.0 | 0.00 | 0.00 | 0.00 | 86 | 1010.7 |
| 20260509064805 | 64 | 31 | 2.0 | 6.0 | 0.00 | 0.00 | 0.00 | 86 | 1010.7 |
| 20260509064304 | 64 | 87 | 3.0 | 6.0 | 0.00 | 0.00 | 0.00 | 86 | 1010.8 |
| 20260509063804 | 64 | 67 | 2.0 | 3.0 | 0.00 | 0.00 | 0.00 | 86 | 1010.8 |
| 20260509063304 | 64 | 63 | 2.0 | 7.0 | 0.00 | 0.00 | 0.00 | 87 | 1010.0 |
| 20260509062804 | 64 | 37 | 4.0 | 10.0 | 0.00 | 0.00 | 0.00 | 87 | 1009.7 |
| 20260509062306 | 64 | 30 | 3.0 | 9.0 | 0.00 | 0.00 | 0.00 | 87 | 1009.2 |
| 20260509061804 | 64 | 9 | 3.0 | 10.0 | 0.00 | 0.00 | 0.00 | 88 | 1009.0 |
| 20260509061304 | 63 | 19 | 4.0 | 8.0 | 0.00 | 0.00 | 0.00 | 88 | 1009.1 |
| 20260509060804 | 63 | 345 | 2.0 | 6.0 | 0.00 | 0.00 | 0.00 | 87 | 1009.2 |
| 20260509060305 | 62 | 286 | 1.0 | 3.0 | 0.00 | 0.00 | 0.00 | 87 | 1009.2 |
| 20260509055306 | 62 | 280 | 0.0 | 2.0 | 0.00 | 0.00 | 0.00 | 87 | 1009.5 |
| 20260509054804 | 62 | 280 | 1.0 | 3.0 | 0.00 | 0.00 | 0.00 | 87 | 1009.8 |
| 20260509054304 | 62 | 284 | 2.0 | 6.0 | 0.00 | 0.00 | 0.00 | 87 | 1009.8 |
| 20260509053804 | 62 | 335 | 2.0 | 3.0 | 0.00 | 0.00 | 0.00 | 87 | 1010.0 |
| 20260509053304 | 62 | 35 | 2.0 | 3.0 | 0.00 | 0.00 | 0.00 | 87 | 1009.9 |
| 20260509052307 | 62 | 84 | 1.0 | 3.0 | 0.00 | 0.00 | 0.00 | 86 | 1010.4 |
| 20260509051804 | 62 | 84 | 0.0 | 1.0 | 0.00 | 0.00 | 0.00 | 86 | 1010.3 |
| 20260509050804 | 63 | 84 | 0.0 | 2.0 | 0.00 | 0.00 | 0.00 | 85 | 1010.3 |
| 20260509050304 | 63 | 84 | 2.0 | 3.0 | 0.00 | 0.00 | 0.00 | 84 | 1010.2 |
| 20260509045804 | 64 | 84 | 0.0 | 2.0 | 0.00 | 0.00 | 0.00 | 85 | 1009.9 |
| 20260509045306 | 64 | 84 | 2.0 | 3.0 | 0.00 | 0.00 | 0.00 | 85 | 1009.6 |
| 20260509044804 | 64 | 84 | 0.0 | 1.0 | 0.00 | 0.00 | 0.00 | 84 | 1009.8 |
| 20260509044304 | 64 | 84 | 0.0 | 1.0 | 0.00 | 0.00 | 0.00 | 84 | 1009.7 |
| 20260509043804 | 64 | 84 | 1.0 | 2.0 | 0.00 | 0.00 | 0.00 | 84 | 1009.6 |
| 20260509043304 | 64 | 84 | 1.0 | 3.0 | 0.00 | 0.00 | 0.00 | 84 | 1009.6 |
| 20260509042307 | 64 | 84 | 1.0 | 2.0 | 0.00 | 0.00 | 0.00 | 84 | 1009.6 |
| 20260509041804 | 64 | 85 | 0.0 | 2.0 | 0.00 | 0.00 | 0.00 | 84 | 1009.6 |
| 20260509041304 | 64 | 86 | 1.0 | 3.0 | 0.00 | 0.00 | 0.00 | 84 | 1009.6 |
| 20260509040804 | 64 | 85 | 1.0 | 2.0 | 0.00 | 0.00 | 0.00 | 84 | 1009.8 |
| 20260509040304 | 64 | 86 | 1.0 | 3.0 | 0.00 | 0.00 | 0.00 | 84 | 1009.8 |
| 20260509035804 | 64 | 84 | 1.0 | 2.0 | 0.00 | 0.00 | 0.00 | 85 | 1010.0 |
| 20260509034304 | 64 | 84 | 1.0 | 3.0 | 0.00 | 0.00 | 0.00 | 85 | 1010.0 |
| 20260509033805 | 64 | 84 | 0.0 | 2.0 | 0.00 | 0.00 | 0.00 | 85 | 1010.0 |
| 20260509033304 | 64 | 84 | 1.0 | 3.0 | 0.00 | 0.00 | 0.00 | 85 | 1009.9 |
| 20260509032805 | 64 | 86 | 0.0 | 2.0 | 0.00 | 0.00 | 0.00 | 85 | 1010.1 |
| 20260509032306 | 64 | 85 | 0.0 | 0.0 | 0.00 | 0.00 | 0.00 | 85 | 1010.1 |
| 20260509031803 | 64 | 85 | 0.0 | 0.0 | 0.00 | 0.00 | 0.00 | 85 | 1010.1 |
| 20260509031304 | 64 | 86 | 0.0 | 2.0 | 0.00 | 0.00 | 0.00 | 85 | 1010.1 |
| 20260509030304 | 64 | 10 | 1.0 | 3.0 | 0.00 | 0.00 | 0.00 | 85 | 1010.2 |
| 20260509025804 | 64 | 86 | 0.0 | 2.0 | 0.00 | 0.00 | 0.00 | 85 | 1010.2 |
| 20260509025306 | 64 | 81 | 2.0 | 3.0 | 0.00 | 0.00 | 0.00 | 85 | 1010.3 |
| 20260509024804 | 64 | 84 | 2.0 | 3.0 | 0.00 | 0.00 | 0.00 | 85 | 1010.2 |
| 20260509024304 | 64 | 84 | 1.0 | 3.0 | 0.00 | 0.00 | 0.00 | 85 | 1010.3 |
| 20260509023304 | 64 | 82 | 2.0 | 3.0 | 0.00 | 0.00 | 0.00 | 85 | 1010.3 |
| 20260509022804 | 64 | 82 | 1.0 | 3.0 | 0.00 | 0.00 | 0.00 | 85 | 1010.3 |
| 20260509022306 | 64 | 74 | 1.0 | 3.0 | 0.00 | 0.00 | 0.00 | 85 | 1010.3 |
| 20260509021804 | 64 | 75 | 2.0 | 3.0 | 0.00 | 0.00 | 0.00 | 85 | 1010.4 |
| 20260509021304 | 64 | 83 | 3.0 | 5.0 | 0.00 | 0.00 | 0.00 | 85 | 1010.5 |
| 20260509020804 | 64 | 79 | 1.0 | 3.0 | 0.00 | 0.00 | 0.00 | 85 | 1010.4 |
| 20260509015804 | 65 | 62 | 0.0 | 2.0 | 0.00 | 0.00 | 0.00 | 84 | 1010.5 |
| 20260509015306 | 65 | 63 | 0.0 | 2.0 | 0.00 | 0.00 | 0.00 | 84 | 1010.6 |
| 20260509014804 | 65 | 63 | 0.0 | 3.0 | 0.00 | 0.00 | 0.00 | 84 | 1010.7 |
| 20260509014304 | 65 | 63 | 2.0 | 3.0 | 0.00 | 0.00 | 0.00 | 83 | 1010.7 |
| 20260509013805 | 65 | 62 | 0.0 | 3.0 | 0.00 | 0.00 | 0.00 | 83 | 1010.8 |
| 20260509013304 | 65 | 63 | 0.0 | 2.0 | 0.00 | 0.00 | 0.00 | 83 | 1010.9 |
| 20260509012804 | 65 | 63 | 1.0 | 3.0 | 0.00 | 0.00 | 0.00 | 83 | 1010.9 |
| 20260509011804 | 64 | 63 | 1.0 | 3.0 | 0.00 | 0.00 | 0.00 | 82 | 1011.1 |
| 20260509011304 | 64 | 63 | 2.0 | 3.0 | 0.00 | 0.00 | 0.00 | 82 | 1011.1 |
| 20260509010304 | 64 | 63 | 1.0 | 2.0 | 0.00 | 0.00 | 0.00 | 83 | 1011.2 |
| 20260509005306 | 64 | 63 | 0.0 | 3.0 | 0.00 | 0.00 | 0.00 | 82 | 1011.4 |
| 20260509004804 | 64 | 63 | 1.0 | 3.0 | 0.00 | 0.00 | 0.00 | 82 | 1011.3 |
| 20260509004304 | 64 | 65 | 0.0 | 1.0 | 0.00 | 0.00 | 0.00 | 82 | 1011.4 |
| 20260509003804 | 64 | 65 | 0.0 | 2.0 | 0.00 | 0.00 | 0.00 | 82 | 1011.4 |
| 20260509002805 | 64 | 62 | 0.0 | 3.0 | 0.00 | 0.00 | 0.00 | 82 | 1011.7 |
| 20260509002306 | 64 | 63 | 0.0 | 1.0 | 0.00 | 0.00 | 0.00 | 82 | 1011.7 |